EZY48TH EGKK-LFMN

Flight info

Callsign EZY48TH
Flight time N/A
Altitude 23000
Route BOGNA L612 XAMAB/N0423F330 UL612 VEULE DCT KOTAP DCT KETEX DCT KOTIS DCT KUKOR DCT UTUVA DCT LERGA DCT LIQID DCT LATAM DCT TUNUR DCT NISAR
Aircraft A320/M-SDE1E2E3FGHIRWXY/LB1

Departure

Time 2026-04-15 12:29
Airport London Gatwick Airport (EGKK)

Arrival

Time N/A
Airport Nice-Côte d'Azur Airport (LFMN)
Time Latitude Longitude Altitude Speed Heading
2026-04-15 12:01 51.15650 -0.17787 209 ft 0 kts 167°
2026-04-15 12:16 51.15661 -0.17791 204 ft 3 kts 165°
2026-04-15 12:17 51.15680 -0.17800 216 ft 3 kts 157°
2026-04-15 12:17 51.15698 -0.17814 212 ft 3 kts 143°
2026-04-15 12:17 51.15711 -0.17835 216 ft 3 kts 111°
2026-04-15 12:17 51.15714 -0.17855 213 ft 1 kts 77°
2026-04-15 12:18 51.15713 -0.17862 212 ft 0 kts 77°
2026-04-15 12:20 51.15713 -0.17859 212 ft 2 kts 77°
2026-04-15 12:21 51.15720 -0.17811 216 ft 7 kts 77°
2026-04-15 12:21 51.15735 -0.17698 213 ft 13 kts 78°
2026-04-15 12:21 51.15752 -0.17567 213 ft 11 kts 78°
2026-04-15 12:21 51.15715 -0.17494 209 ft 11 kts 168°
2026-04-15 12:22 51.15630 -0.17467 208 ft 14 kts 169°
2026-04-15 12:22 51.15527 -0.17431 207 ft 16 kts 167°
2026-04-15 12:22 51.15423 -0.17395 206 ft 15 kts 167°
2026-04-15 12:22 51.15312 -0.17356 211 ft 15 kts 167°
2026-04-15 12:23 51.15234 -0.17301 206 ft 13 kts 146°
2026-04-15 12:23 51.15178 -0.17219 206 ft 10 kts 110°
2026-04-15 12:23 51.15194 -0.17105 204 ft 11 kts 77°
2026-04-15 12:23 51.15205 -0.17023 209 ft 5 kts 78°
2026-04-15 12:24 51.15209 -0.16994 204 ft 0 kts 78°
2026-04-15 12:24 51.15209 -0.16993 204 ft 1 kts 78°
2026-04-15 12:25 51.15214 -0.16953 204 ft 6 kts 78°
2026-04-15 12:25 51.15218 -0.16925 214 ft 0 kts 78°
2026-04-15 12:26 51.15218 -0.16923 213 ft 1 kts 78°
2026-04-15 12:26 51.15224 -0.16850 204 ft 10 kts 94°
2026-04-15 12:26 51.15169 -0.16785 203 ft 12 kts 169°
2026-04-15 12:27 51.15114 -0.16846 202 ft 8 kts 258°
2026-04-15 12:27 51.15113 -0.16856 213 ft 0 kts 260°
2026-04-15 12:28 51.15109 -0.16889 202 ft 22 kts 260°
2026-04-15 12:28 51.15019 -0.17539 206 ft 94 kts 256°
2026-04-15 12:28 51.14834 -0.18869 207 ft 149 kts 257°
2026-04-15 12:28 51.14608 -0.20497 744 ft 151 kts 253°
2026-04-15 12:29 51.14384 -0.22133 1458 ft 151 kts 253°
2026-04-15 12:29 51.14135 -0.23879 1845 ft 173 kts 252°
2026-04-15 12:29 51.13850 -0.25880 2201 ft 198 kts 253°